Amateur Radio Satellites - All Passes

Search period start: 21 May 2013 04:34
Search period end: 22 May 2013 04:34
Location: Lac Echo, 45.9375°N, 75.4580°W

Satellite Date Start Highest point End Downlink Frequencies (MHz)
Time Altitude Azimuth
Uribyol 2 21 May 04:57:26 05:00:22 15° 303° (WNW) 05:03:17 436.500 FM
ISS 21 May 04:57:39 05:00:58 74° 334° (NNW) 05:04:19 145.800 FM
Oscar 19 21 May 05:05:44 05:07:23 12° 306° (NW) 05:09:02 437.125 CW, 437.150 USB
MaSat-1 21 May 05:07:50 05:11:30 16° 318° (NW) 05:14:47 437.345 MHz
Uosat F 21 May 05:13:03 05:17:56 53° 290° (WNW) 05:22:49 435.120 FM
AO-7 21 May 05:14:37 05:22:04 34° 96° (E) 05:29:27 29.400 - 29.500 MHz
AO-Echo 21 May 05:23:03 05:26:25 20° 298° (WNW) 05:29:47 ?
KITSAT 1 21 May 05:24:11 05:29:48 20° 14° (NNE) 05:35:24 435.175 FM
STRAND 1 21 May 05:34:54 05:39:18 30° 64° (ENE) 05:43:44 ?
TMSAT-1 21 May 05:39:24 05:44:36 57° 289° (WNW) 05:49:47 436.925 FM
Gurwin Techsat 1B 21 May 06:00:37 06:05:04 28° 297° (WNW) 06:09:31 435.225 FM
ISS 21 May 06:35:01 06:38:03 31° 354° (N) 06:41:05 145.800 FM
Saudisat 1A 21 May 06:45:38 06:50:11 69° 123° (ESE) 06:54:47 436.775 MHz
PCSat 21 May 06:54:47 06:57:30 14° 103° (ESE) 07:00:13 145.825 MHz
AO-7 21 May 07:07:05 07:15:16 61° 296° (WNW) 07:23:26 29.400 - 29.500 MHz
STRAND 1 21 May 07:13:41 07:18:24 38° 263° (W) 07:23:10 ?
KITSAT 1 21 May 07:20:04 07:27:44 42° 41° (NE) 07:35:20 435.175 FM
Sapphire 21 May 07:25:43 07:30:02 25° 108° (ESE) 07:34:22 437.095 MHz 1200 baud AX-25 AFSK
JAS-1B 21 May 07:33:50 07:37:24 16° 86° (E) 07:40:48 435.800 - 435.900 CW/SSB
Hamsat 21 May 07:56:17 08:00:34 54° 100° (E) 08:04:51 145.90 MHz
SO-67 21 May 08:09:35 08:12:32 24° 94° (E) 08:15:29 435.3500 MHz FM
ISS 21 May 08:12:09 08:15:19 37° 14° (NNE) 08:18:29 145.800 FM
Saudisat 1A 21 May 08:26:42 08:30:21 23° 323° (NW) 08:34:01 436.775 MHz
PCSat 21 May 08:34:42 08:40:07 89° 122° (ESE) 08:45:35 145.825 MHz
AO-7 21 May 09:01:31 09:06:27 17° 318° (NW) 09:11:23 29.400 - 29.500 MHz
Sapphire 21 May 09:07:48 09:13:07 56° 307° (NW) 09:18:28 437.095 MHz 1200 baud AX-25 AFSK
HO-68 21 May 09:10:27 09:15:03 18° 88° (E) 09:19:38 435.675 MHz FM
KITSAT 1 21 May 09:15:33 09:23:30 60° 244° (WSW) 09:31:25 435.175 FM
JAS-1B 21 May 09:22:48 09:29:05 76° 288° (WNW) 09:34:46 435.800 - 435.900 CW/SSB
SO-50 21 May 09:32:09 09:36:51 56° 121° (ESE) 09:41:29 436.795 FM
Hamsat 21 May 09:33:24 09:36:16 18° 297° (WNW) 09:39:08 145.90 MHz
SO-67 21 May 09:43:00 09:45:57 24° 291° (WNW) 09:48:54 435.3500 MHz FM
ISS 21 May 09:48:51 09:52:11 60° 213° (SSW) 09:55:30 145.800 FM
Oscar 11 21 May 09:50:58 09:53:36 16° 90° (E) 09:56:12 145.825 FM, Beacon 2401.500 USB
PCSat 21 May 10:20:16 10:24:19 21° 323° (NW) 10:28:22 145.825 MHz
MaSat-1 21 May 10:24:27 10:25:51 12° 37° (NE) 10:27:10 437.345 MHz
JAS-2 21 May 10:27:04 10:33:56 49° 97° (E) 10:39:58 435.800 - 435.900 CW/SSB, 435.910 FM
OPAL 21 May 10:32:51 10:36:24 19° 93° (E) 10:39:54 ?
Sapphire 21 May 10:54:45 10:57:47 15° 330° (NNW) 11:00:50 437.095 MHz 1200 baud AX-25 AFSK
HO-68 21 May 10:56:29 11:03:42 89° 108° (ESE) 11:10:53 435.675 MHz FM
UOSAT-12 21 May 11:06:58 11:08:35 12° 108° (ESE) 11:10:12 437.025 FM, 437.400 FM
SO-50 21 May 11:13:44 11:17:47 27° 321° (NW) 11:21:47 436.795 FM
KITSAT 1 21 May 11:14:49 11:17:12 12° 264° (W) 11:19:35 435.175 FM
Oscar 10/S400 21 May 11:15:13 12:51:46 15° 280° (W) 15:29:38 145.825 - 145.975 CW/USB, Beacon 145.810 USB
JAS-1B 21 May 11:15:31 11:18:30 14° 312° (NW) 11:21:21 435.800 - 435.900 CW/SSB
Oscar 11 21 May 11:25:54 11:30:11 56° 288° (WNW) 11:34:28 145.825 FM, Beacon 2401.500 USB
MaSat-1 21 May 12:05:09 12:08:41 65° 245° (WSW) 12:11:31 437.345 MHz
Oscar 16 21 May 12:07:36 12:09:41 12° 55° (NE) 12:11:45 437.025 USB, Beacon 2401.1428
OPAL 21 May 12:10:45 12:15:42 58° 292° (WNW) 12:20:34 ?
JAS-2 21 May 12:12:22 12:18:45 36° 299° (WNW) 12:24:28 435.800 - 435.900 CW/SSB, 435.910 FM
AO-27 21 May 12:14:08 12:15:02 10° 52° (NE) 12:15:57 436.795 MHz FM
ITAMSAT 1 21 May 12:20:15 12:22:01 12° 54° (NE) 12:23:46 435.822 SSB
UOSAT-12 21 May 12:43:31 12:48:02 90° 125° (SE) 12:52:37 437.025 FM, 437.400 FM
HO-68 21 May 12:45:21 12:50:32 22° 308° (NW) 12:55:42 435.675 MHz FM
Uribyol 2 21 May 12:58:46 13:02:55 25° 62° (ENE) 13:07:07 436.500 FM
Oscar 19 21 May 13:04:45 13:09:16 31° 65° (ENE) 13:13:48 437.125 CW, 437.150 USB
AO-Echo 21 May 13:23:23 13:25:36 13° 58° (ENE) 13:27:48 ?
Saudisat 1A 21 May 13:31:48 13:35:20 21° 36° (NE) 13:38:50 436.775 MHz
Oscar 16 21 May 13:42:59 13:48:10 75° 73° (ENE) 13:53:23 437.025 USB, Beacon 2401.1428
AO-27 21 May 13:48:28 13:53:34 63° 72° (ENE) 13:58:43 436.795 MHz FM
ITAMSAT 1 21 May 13:55:28 14:00:36 71° 73° (ENE) 14:05:47 435.822 SSB
Gurwin Techsat 1B 21 May 14:07:06 14:09:54 15° 56° (NE) 14:12:42 435.225 FM
UOSAT-12 21 May 14:25:38 14:28:51 19° 327° (NNW) 14:32:06 437.025 FM, 437.400 FM
Sapphire 21 May 14:28:21 14:30:09 12° 24° (NNE) 14:31:57 437.095 MHz 1200 baud AX-25 AFSK
AO-7 21 May 14:28:25 14:33:00 16° 41° (NE) 14:37:34 29.400 - 29.500 MHz
Uribyol 2 21 May 14:37:08 14:42:08 49° 260° (W) 14:47:11 436.500 FM
Oscar 19 21 May 14:43:41 14:48:31 39° 263° (W) 14:53:23 437.125 CW, 437.150 USB
Uosat F 21 May 14:50:37 14:55:11 37° 67° (ENE) 14:59:47 435.120 FM
AO-Echo 21 May 14:58:52 15:03:45 88° 256° (WSW) 15:08:32 ?
Saudisat 1A 21 May 15:10:59 15:15:33 74° 236° (WSW) 15:20:00 436.775 MHz
TMSAT-1 21 May 15:23:19 15:28:14 41° 68° (ENE) 15:33:11 436.925 FM
Oscar 16 21 May 15:25:06 15:28:07 15° 271° (W) 15:31:09 437.025 USB, Beacon 2401.1428
AO-27 21 May 15:30:02 15:33:33 18° 269° (W) 15:37:06 436.795 MHz FM
PCSat 21 May 15:37:29 15:41:58 25° 41° (NE) 15:46:26 145.825 MHz
ITAMSAT 1 21 May 15:37:30 15:40:40 16° 271° (W) 15:43:51 435.822 SSB
Gurwin Techsat 1B 21 May 15:43:47 15:49:06 87° 75° (ENE) 15:54:27 435.225 FM
RS-15 21 May 15:59:09 16:09:29 36° 106° (ESE) 16:19:27 29.354 - 29.394 USB, Beacon 29.352 USB
Sapphire 21 May 16:10:10 16:15:14 38° 47° (NE) 16:20:16 437.095 MHz 1200 baud AX-25 AFSK
AO-7 21 May 16:16:02 16:24:04 57° 63° (ENE) 16:32:09 29.400 - 29.500 MHz
SO-50 21 May 16:22:11 16:25:34 20° 34° (NE) 16:28:53 436.795 FM
Uosat F 21 May 16:29:43 16:34:04 29° 265° (W) 16:38:26 435.120 FM
AO-Echo 21 May 16:42:16 16:43:14 11° 273° (W) 16:44:12 ?
TMSAT-1 21 May 17:03:42 17:08:17 29° 266° (W) 17:12:54 436.925 FM
PCSat 21 May 17:20:30 17:25:55 69° 241° (WSW) 17:31:17 145.825 MHz
Gurwin Techsat 1B 21 May 17:27:17 17:29:48 13° 273° (W) 17:32:19 435.225 FM
Sapphire 21 May 17:53:40 17:58:42 40° 247° (WSW) 18:03:43 437.095 MHz 1200 baud AX-25 AFSK
SO-50 21 May 18:02:12 18:06:47 83° 235° (SW) 18:11:16 436.795 FM
RS-15 21 May 18:09:00 18:21:02 77° 309° (NW) 18:32:33 29.354 - 29.394 USB, Beacon 29.352 USB
AO-7 21 May 18:09:42 18:17:10 37° 263° (W) 18:24:45 29.400 - 29.500 MHz
JAS-1B 21 May 18:19:11 18:26:24 29° 59° (ENE) 18:32:46 435.800 - 435.900 CW/SSB
SO-67 21 May 18:48:56 18:50:57 15° 64° (ENE) 18:52:58 435.3500 MHz FM
Hamsat 21 May 18:52:46 18:56:52 52° 72° (ENE) 19:01:00 145.90 MHz
STRAND 1 21 May 19:21:22 19:26:28 60° 101° (ESE) 19:31:32 ?
UOSAT-12 21 May 19:31:19 19:35:14 27° 40° (NE) 19:39:08 437.025 FM, 437.400 FM
HO-68 21 May 19:42:32 19:47:29 21° 51° (NE) 19:52:25 435.675 MHz FM
SO-50 21 May 19:45:47 19:46:36 10° 253° (WSW) 19:47:25 436.795 FM
JAS-1B 21 May 20:07:09 20:16:26 77° 256° (WSW) 20:24:20 435.800 - 435.900 CW/SSB
SO-67 21 May 20:20:39 20:24:04 43° 262° (W) 20:27:31 435.3500 MHz FM
RS-15 21 May 20:25:09 20:35:36 35° 338° (NNW) 20:45:41 29.354 - 29.394 USB, Beacon 29.352 USB
Hamsat 21 May 20:30:45 20:33:17 16° 270° (W) 20:35:51 145.90 MHz
JAS-2 21 May 20:40:17 20:47:05 34° 61° (ENE) 20:53:53 435.800 - 435.900 CW/SSB, 435.910 FM
Oscar 11 21 May 20:48:59 20:51:54 18° 62° (ENE) 20:54:50 145.825 FM, Beacon 2401.500 USB
STRAND 1 21 May 21:01:28 21:05:15 21° 299° (WNW) 21:09:02 ?
UOSAT-12 21 May 21:11:12 21:15:41 53° 239° (WSW) 21:20:09 437.025 FM, 437.400 FM
HO-68 21 May 21:27:05 21:34:13 86° 72° (ENE) 21:41:25 435.675 MHz FM
OPAL 21 May 21:49:31 21:54:29 47° 67° (ENE) 21:59:25 ?
KITSAT 1 21 May 21:55:26 21:59:37 15° 99° (E) 22:03:49 435.175 FM
JAS-1B 21 May 22:02:16 22:07:51 18° 273° (W) 22:13:02 435.800 - 435.900 CW/SSB
Oscar 11 21 May 22:23:33 22:27:46 51° 260° (W) 22:32:01 145.825 FM, Beacon 2401.500 USB
JAS-2 21 May 22:23:58 22:31:37 63° 260° (W) 22:39:25 435.800 - 435.900 CW/SSB, 435.910 FM
RS-15 21 May 22:42:26 22:52:16 31° 13° (NNE) 23:01:45 29.354 - 29.394 USB, Beacon 29.352 USB
HO-68 21 May 23:17:55 23:22:47 19° 271° (W) 23:27:41 435.675 MHz FM
OPAL 21 May 23:29:18 23:33:34 25° 264° (W) 23:37:50 ?
KITSAT 1 21 May 23:45:35 23:53:35 72° 119° (ESE) 00:01:39 435.175 FM
JAS-2 22 May 00:14:51 00:18:05 13° 279° (W) 00:21:20 435.800 - 435.900 CW/SSB, 435.910 FM
RS-15 22 May 00:56:20 01:07:29 62° 44° (NE) 01:18:14 29.354 - 29.394 USB, Beacon 29.352 USB
MaSat-1 22 May 00:58:36 01:02:36 16° 103° (ESE) 01:06:16 437.345 MHz
KITSAT 1 22 May 01:42:18 01:49:38 37° 322° (NW) 01:57:03 435.175 FM
Oscar 16 22 May 01:53:07 01:57:08 22° 92° (E) 02:01:06 437.025 USB, Beacon 2401.1428
AO-27 22 May 02:00:02 02:03:42 19° 91° (E) 02:07:21 436.795 MHz FM
ITAMSAT 1 22 May 02:06:44 02:10:41 21° 92° (E) 02:14:36 435.822 SSB
ISS 22 May 02:34:45 02:36:02 12° 132° (SE) 02:37:18 145.800 FM
MaSat-1 22 May 02:37:16 02:44:19 82° 117° (ESE) 02:50:02 437.345 MHz
Uribyol 2 22 May 02:47:16 02:52:22 50° 100° (E) 02:57:26 436.500 FM
Oscar 19 22 May 02:52:26 02:57:36 63° 102° (ESE) 03:02:41 437.125 CW, 437.150 USB
AO-Echo 22 May 03:04:07 03:07:56 24° 94° (E) 03:11:47 ?
RS-15 22 May 03:09:15 03:19:30 46° 249° (WSW) 03:29:33 29.354 - 29.394 USB, Beacon 29.352 USB
Oscar 16 22 May 03:31:46 03:36:48 52° 290° (WNW) 03:41:48 437.025 USB, Beacon 2401.1428
TMSAT-1 22 May 03:38:21 03:40:48 13° 87° (E) 03:43:14 436.925 FM
AO-27 22 May 03:38:30 03:43:40 62° 289° (WNW) 03:48:48 436.795 MHz FM
KITSAT 1 22 May 03:42:26 03:47:49 19° 351° (N) 03:53:13 435.175 FM
ITAMSAT 1 22 May 03:45:26 03:50:32 55° 290° (WNW) 03:55:37 435.822 SSB
Gurwin Techsat 1B 22 May 03:58:00 04:02:37 29° 94° (E) 04:07:12 435.225 FM
ISS 22 May 04:08:55 04:12:13 74° 150° (SSE) 04:15:34 145.800 FM
AO-7 22 May 04:17:13 04:21:07 14° 85° (E) 04:24:59 29.400 - 29.500 MHz
MaSat-1 22 May 04:21:50 04:26:55 23° 312° (NW) 04:31:14 437.345 MHz

Developed and maintained by Chris Peat, Heavens-Above GmbH. Please read the updated FAQ before sending e-mail. Imprint. DLR
